Grayling, MI

3:35 AM EDT on April 20, 2018 (GMT -0400)
Grayling

Weather History for KGOV - April, 2013

Change the Weather History Date:

Wednesday, April 3, 2013

  Actual Average (KHTL) Record (KHTL)
Temperature  
Mean Temperature 24 °F -  
Max Temperature 35 °F 46 °F 78 °F (1999)
Min Temperature 13 °F 26 °F 3 °F (1954)
Degree Days  
Heating Degree Days 41    
Moisture  
Dew Point 14 °F    
Average Humidity 63    
Maximum Humidity 92    
Minimum Humidity 39    
Precipitation  
Precipitation 0.00 in - - ()
Sea Level Pressure  
Sea Level Pressure 30.30 in    
Wind  
Wind Speed 4 mph (WNW)    
Max Wind Speed 17 mph    
Max Gust Speed 22 mph    
Visibility 10 miles    
Events Snow    
Averages and records for this station are not official NWS values.
T = Trace of Precipitation, MM = Missing Value Source: NWS Daily Summary

Daily Weather History Graph

Daily Weather History Graph

Search for Another Location

Airport or City:

Astronomy

Apr. 03, 2013 Rise Set
Actual Time 7:15 AM EDT 8:09 PM EDT
Civil Twilight 6:46 AM EDT 8:38 PM EDT
Nautical Twilight 6:10 AM EDT 9:14 PM EDT
Astronomical Twilight 5:33 AM EDT 9:51 PM EDT
Moon 3:11 AM EDT (4/3) 1:05 PM EDT (4/3)
Length of Visible Light 13h 52m
Length of Day
12h 53m
Last Quarter, 45% of the Moon is Illuminated
Apr 3
Last Quarter
Apr 10
New
Apr 18
First Quarter
Apr 25
Full
May 2
Last Quarter

Hourly Weather History & Observations

Time (EDT) Temp. Windchill Dew Point Humidity Pressure Visibility Wind Dir Wind Speed Gust Speed Precip Events Conditions
12:15 AM 21.0 °F 16.2 °F 11.1 °F 66% 30.21 in 10.0 mi WNW 3.5 mph - N/A   Clear
12:35 AM 19.9 °F 13.4 °F 10.0 °F 65% 30.21 in 10.0 mi WNW 4.6 mph - N/A   Clear
12:54 AM 19.8 °F - 10.0 °F 66% 30.21 in 10.0 mi Calm Calm - N/A   Clear
1:15 AM 18.5 °F - 10.2 °F 70% 30.21 in 10.0 mi Calm Calm - N/A   Clear
1:35 AM 17.8 °F 12.5 °F 11.1 °F 75% 30.21 in 10.0 mi WSW 3.5 mph - N/A   Clear
1:54 AM 18.5 °F 13.3 °F 11.5 °F 74% 30.22 in 10.0 mi WSW 3.5 mph - N/A   Clear
2:15 AM 18.5 °F 13.3 °F 11.1 °F 73% 30.22 in 10.0 mi West 3.5 mph - N/A   Clear
2:35 AM 17.1 °F - 9.9 °F 73% 30.22 in 10.0 mi Calm Calm - N/A   Clear
2:54 AM 15.8 °F - 10.0 °F 78% 30.22 in 10.0 mi Calm Calm - N/A   Clear
3:15 AM 14.2 °F - 10.4 °F 85% 30.21 in 10.0 mi Calm Calm - N/A   Clear
3:35 AM 13.5 °F - 10.6 °F 88% 30.21 in 10.0 mi Calm Calm - N/A   Clear
3:55 AM 13.5 °F 5.8 °F 10.6 °F 88% 30.21 in 10.0 mi WSW 4.6 mph - N/A   Clear
4:15 AM 15.8 °F 8.6 °F 11.1 °F 82% 30.21 in 10.0 mi WSW 4.6 mph - N/A   Clear
4:35 AM 15.8 °F 10.2 °F 12.0 °F 85% 30.23 in 10.0 mi West 3.5 mph - N/A   Mostly Cloudy
4:55 AM 15.8 °F - 12.2 °F 86% 30.24 in 10.0 mi Calm Calm - N/A   Overcast
5:15 AM 19.2 °F 12.5 °F 13.8 °F 80% 30.24 in 4.0 mi West 4.6 mph - N/A Snow Light Snow
5:34 AM 18.5 °F 11.7 °F 13.3 °F 80% 30.25 in 10.0 mi West 4.6 mph - N/A   Scattered Clouds
5:55 AM 18.5 °F 9.3 °F 13.1 °F 79% 30.26 in 10.0 mi NW 6.9 mph - N/A   Clear
6:15 AM 18.5 °F 13.3 °F 12.2 °F 76% 30.26 in 10.0 mi West 3.5 mph - N/A   Clear
6:34 AM 15.8 °F 10.2 °F 12.0 °F 85% 30.27 in 10.0 mi WSW 3.5 mph - N/A   Clear
6:55 AM 13.6 °F - 11.1 °F 90% 30.27 in 10.0 mi Calm Calm - N/A   Clear
7:15 AM 14.9 °F - 11.7 °F 87% 30.28 in 10.0 mi Calm Calm - N/A   Clear
7:34 AM 13.5 °F - 10.8 °F 89% 30.29 in 10.0 mi Calm Calm - N/A   Clear
7:55 AM 14.5 °F - 12.6 °F 92% 30.30 in 10.0 mi Calm Calm - N/A   Clear
8:15 AM 17.6 °F - 15.1 °F 90% 30.31 in 10.0 mi Calm Calm - N/A   Clear
8:34 AM 21.0 °F - 12.9 °F 71% 30.31 in 10.0 mi Calm Calm - N/A   Clear
8:55 AM 23.5 °F 16.4 °F 14.2 °F 67% 30.32 in 10.0 mi NNW 5.8 mph - N/A   Clear
9:15 AM 26.1 °F 16.2 °F 16.0 °F 66% 30.32 in 10.0 mi NNW 10.4 mph - N/A   Clear
9:34 AM 26.1 °F 15.6 °F 15.6 °F 65% 30.32 in 10.0 mi NNW 11.5 mph 19.6 mph N/A   Clear
9:55 AM 28.4 °F 16.2 °F 16.9 °F 62% 30.33 in 10.0 mi NW 17.3 mph 20.7 mph N/A   Clear
10:14 AM 28.4 °F 16.6 °F 16.3 °F 61% 30.34 in 10.0 mi WNW 16.1 mph 20.7 mph N/A   Scattered Clouds
10:35 AM 28.4 °F 16.6 °F 15.3 °F 58% 30.35 in 10.0 mi NW 16.1 mph 21.9 mph N/A   Mostly Cloudy
10:55 AM 28.4 °F 17.0 °F 14.0 °F 55% 30.35 in 10.0 mi NNW 15.0 mph 21.9 mph N/A   Scattered Clouds
11:15 AM 29.8 °F 18.9 °F 14.0 °F 52% 30.35 in 10.0 mi NNW 15.0 mph 19.6 mph N/A   Scattered Clouds
11:35 AM 31.1 °F 21.9 °F 13.5 °F 48% 30.36 in 10.0 mi NNW 11.5 mph 17.3 mph N/A   Clear
11:55 AM 33.3 °F 24.6 °F 15.1 °F 47% 30.37 in 10.0 mi NW 11.5 mph 17.3 mph N/A   Clear
12:14 PM 32.2 °F 21.8 °F 13.6 °F 46% 30.38 in 10.0 mi NW 15.0 mph 18.4 mph N/A   Scattered Clouds
12:35 PM 33.3 °F 25.1 °F 14.5 °F 46% 30.38 in 10.0 mi West 10.4 mph 19.6 mph N/A   Scattered Clouds
12:55 PM 33.3 °F 26.4 °F 13.3 °F 44% 30.38 in 10.0 mi West 8.1 mph - N/A   Scattered Clouds
1:14 PM 33.3 °F 27.9 °F 12.6 °F 42% 30.38 in 10.0 mi WNW 5.8 mph 10.4 mph N/A   Clear
1:35 PM 33.3 °F 25.1 °F 12.6 °F 42% 30.38 in 10.0 mi West 10.4 mph - N/A   Clear
1:55 PM 34.9 °F 27.7 °F 13.5 °F 41% 30.38 in 10.0 mi West 9.2 mph - N/A   Clear
2:14 PM 33.3 °F 25.7 °F 11.8 °F 41% 30.37 in 10.0 mi West 9.2 mph - N/A   Clear
2:35 PM 35.8 °F 28.3 °F 14.4 °F 42% 30.37 in 10.0 mi NW 10.4 mph - N/A   Clear
2:55 PM 35.8 °F 27.8 °F 15.1 °F 43% 30.36 in 10.0 mi West 11.5 mph 17.3 mph N/A   Clear
3:15 PM 35.8 °F 28.3 °F 15.3 °F 43% 30.36 in 10.0 mi West 10.4 mph 18.4 mph N/A   Clear
3:35 PM 35.8 °F 30.1 °F 14.5 °F 42% 30.36 in 10.0 mi WNW 6.9 mph - N/A   Clear
3:54 PM 35.8 °F 28.3 °F 14.4 °F 42% 30.36 in 10.0 mi WNW 10.4 mph 18.4 mph N/A   Clear
4:15 PM 35.8 °F 28.8 °F 13.8 °F 41% 30.36 in 10.0 mi WNW 9.2 mph - N/A   Clear
4:35 PM 35.8 °F 28.3 °F 14.2 °F 41% 30.36 in 10.0 mi West 10.4 mph - N/A   Clear
4:54 PM 35.8 °F 27.8 °F 14.2 °F 41% 30.36 in 10.0 mi WNW 11.5 mph - N/A   Clear
5:15 PM 35.8 °F 29.4 °F 14.2 °F 41% 30.36 in 10.0 mi WNW 8.1 mph - N/A   Clear
5:35 PM 35.8 °F 29.4 °F 14.7 °F 42% 30.34 in 10.0 mi NNW 8.1 mph - N/A   Clear
5:55 PM 35.4 °F 29.7 °F 14.4 °F 42% 30.33 in 10.0 mi North 6.9 mph - N/A   Clear
6:15 PM 35.8 °F 30.9 °F 14.5 °F 42% 30.31 in 10.0 mi NNE 5.8 mph - N/A   Clear
6:34 PM 35.8 °F - 12.9 °F 39% 30.31 in 10.0 mi Calm Calm - N/A   Clear
6:55 PM 34.3 °F - 12.2 °F 40% 30.31 in 10.0 mi Calm Calm - N/A   Clear
7:15 PM 34.0 °F - 12.2 °F 41% 30.31 in 10.0 mi Calm Calm - N/A   Clear
7:34 PM 33.6 °F 29.4 °F 12.9 °F 43% 30.31 in 10.0 mi SW 4.6 mph - N/A   Clear
7:55 PM 33.3 °F - 13.5 °F 44% 30.31 in 10.0 mi Calm Calm - N/A   Clear
8:15 PM 32.9 °F - 14.7 °F 47% 30.30 in 10.0 mi Calm Calm - N/A   Clear
8:35 PM 28.6 °F - 15.4 °F 58% 30.30 in 10.0 mi Calm Calm - N/A   Clear
8:55 PM 28.4 °F - 16.0 °F 60% 30.30 in 10.0 mi Calm Calm - N/A   Clear
9:15 PM 26.1 °F - 17.4 °F 70% 30.30 in 10.0 mi Calm Calm - N/A   Clear
9:35 PM 28.4 °F - 19.8 °F 70% 30.30 in 10.0 mi Calm Calm - N/A   Clear
9:55 PM 24.8 °F - 18.5 °F 77% 30.29 in 10.0 mi Calm Calm - N/A   Clear
10:15 PM 23.9 °F - 16.3 °F 73% 30.29 in 10.0 mi Calm Calm - N/A   Clear
10:35 PM 21.6 °F - 16.3 °F 80% 30.28 in 10.0 mi Calm Calm - N/A   Clear
10:55 PM 23.5 °F - 16.0 °F 73% 30.28 in 10.0 mi Calm Calm - N/A   Clear
11:14 PM 21.7 °F - 16.5 °F 80% 30.27 in 10.0 mi Calm Calm - N/A   Clear
11:35 PM 21.4 °F - 16.5 °F 82% 30.27 in 10.0 mi Calm Calm - N/A   Clear
11:55 PM 20.7 °F 15.8 °F 16.0 °F 82% 30.26 in 10.0 mi SW 3.5 mph - N/A   Clear